This is the latest recevied weather packets stored in our database for station/object 7L2IWN-13. If no packets are shown the sender has not sent any weather packets the latest 10 day(s).
| Time | Temp. | Humidity | Pressure | Rain* | Wind** | Luminosity | Snow |
|---|---|---|---|---|---|---|---|
| 1777661900 | 13.33° C | 67% | 998.4 hPa | 0 mm | - | - | - |
| 1777661180 | 13.89° C | 76% | 997.7 hPa | 0 mm | - | - | - |
| 1777660461 | 11.67° C | 87% | 997.1 hPa | 0 mm | - | - | - |
| 1777659740 | 9.44° C | 99% | 996.7 hPa | 0 mm | - | - | - |
| 1777659020 | 8.89° C | 99% | 996.1 hPa | 0 mm | - | - | - |
| 1777658301 | 8.89° C | 99% | 995.6 hPa | 0 mm | - | - | - |
| 1777656860 | 8.89° C | 99% | 995.6 hPa | 0 mm | - | - | - |
| 1777656141 | 8.89° C | 99% | 995.1 hPa | 0 mm | - | - | - |
| 1777655421 | 8.89° C | 99% | 995.2 hPa | 0 mm | - | - | - |
| 1777654702 | 8.89° C | 99% | 995.1 hPa | 0 mm | - | - | - |
| 1777653982 | 9.44° C | 99% | 994.6 hPa | 0 mm | - | - | - |
| 1777653261 | 9.44° C | 99% | 994.8 hPa | 0 mm | - | - | - |
| 1777652541 | 9.44° C | 99% | 994.3 hPa | 0 mm | - | - | - |
| 1777651820 | 9.44° C | 99% | 994.4 hPa | 0 mm | - | - | - |
| 1777651102 | 9.44° C | 99% | 994.2 hPa | 0 mm | - | - | - |
| 1777650382 | 10° C | 99% | 994 hPa | 0 mm | - | - | - |
| 1777648942 | 10.56° C | 99% | 994 hPa | 0 mm | - | - | - |
| 1777648221 | 10.56° C | 99% | 994 hPa | 0 mm | - | - | - |
| 1777647501 | 10.56° C | 99% | 994.3 hPa | 0 mm | - | - | - |
| 1777646781 | 11.11° C | 99% | 994.3 hPa | 0 mm | - | - | - |
| 1777646061 | 11.11° C | 99% | 994.4 hPa | 0 mm | - | - | - |
| 1777645341 | 11.11° C | 99% | 994.5 hPa | 0 mm | - | - | - |
| 1777644622 | 11.11° C | 99% | 994.4 hPa | 0 mm | - | - | - |
| 1777643901 | 11.11° C | 99% | 994.3 hPa | 0 mm | - | - | - |
| 1777643181 | 11.11° C | 99% | 994.1 hPa | 0 mm | - | - | - |
* Rain latest hour (hover to see other rain measurements)
** Current wind speed in m/s (hover to see current wind gust speed)